Phuket, Thailand

10:28 PM +07 on April 20, 2018 (GMT +0700)
Phuket International

Weather History for VTSP - October, 2012

Change the Weather History Date:

Tuesday, October 23, 2012

  Actual Average Record
Temperature  
Mean Temperature 82 °F -  
Max Temperature 90 °F 88 °F 93 °F (1997)
Min Temperature 74 °F 75 °F 69 °F (2015)
Cooling Degree Days 17    
Growing Degree Days 32 (Base 50)    
Moisture  
Dew Point 74 °F    
Average Humidity 82    
Maximum Humidity 95    
Minimum Humidity 47    
Precipitation  
Precipitation 0.01 in 0.30 in - ()
Sea Level Pressure  
Sea Level Pressure 29.81 in    
Wind  
Wind Speed 3 mph ()    
Max Wind Speed 14 mph    
Max Gust Speed -    
Visibility 4.5 miles    
Events Rain    
Averages and records for this station are not official NWS values.
T = Trace of Precipitation, MM = Missing Value Source: Averaged Metar Reports

Daily Weather History Graph

Daily Weather History Graph

Search for Another Location

Airport or City:

Astronomy

Oct. 23, 2012 Rise Set
Actual Time 6:14 AM +07 6:07 PM +07
Civil Twilight 5:52 AM +07 6:28 PM +07
Nautical Twilight 5:28 AM +07 6:53 PM +07
Astronomical Twilight 5:03 AM +07 7:18 PM +07
Moon 1:27 PM +07 (10/23) 12:45 AM +07 (10/23)
Length of Visible Light 12h 35m
Length of Day
11h 53m
First Quarter, 61% of the Moon is Illuminated
Oct 23
First Quarter
Oct 30
Full
Nov 7
Last Quarter
Nov 14
New
Nov 20
First Quarter

Hourly Weather History & Observations

Time (+07) Temp. Heat Index Dew Point Humidity Pressure Visibility Wind Dir Wind Speed Gust Speed Precip Events Conditions
12:30 AM 77.0 °F - 75.2 °F 94% 29.83 in 4.3 mi Calm Calm - N/A   Mostly Cloudy
1:00 AM 78 °F - 77 °F 94% 29.80 in 5 mi Calm Calm - -   Mist
1:00 AM 77.0 °F - 75.2 °F 94% 29.83 in 4.3 mi Calm Calm - N/A   Mostly Cloudy
1:30 AM 77.0 °F - 75.2 °F 94% 29.83 in 4.3 mi Calm Calm - N/A   Mostly Cloudy
4:30 AM 77.0 °F - 75.2 °F 94% 29.80 in 4.3 mi Calm Calm - N/A   Mostly Cloudy
5:00 AM 77.0 °F - 73.4 °F 89% 29.80 in 4.3 mi Calm Calm - N/A   Mostly Cloudy
5:30 AM 77.0 °F - 73.4 °F 89% 29.80 in 4.3 mi Calm Calm - N/A   Mostly Cloudy
6:00 AM 77.0 °F - 73.4 °F 89% 29.80 in 4.3 mi Calm Calm - N/A   Mostly Cloudy
7:00 AM 77 °F - 76 °F 95% 29.79 in 5 mi Calm Calm - -   Mist
7:00 AM 77.0 °F - 75.2 °F 94% 29.83 in 4.3 mi Calm Calm - N/A   Mostly Cloudy
7:30 AM 78.8 °F - 75.2 °F 89% 29.83 in 4.3 mi ENE 4.6 mph - N/A   Mostly Cloudy
8:00 AM 80.6 °F 86.2 °F 75.2 °F 84% 29.86 in 4.3 mi East 4.6 mph - N/A   Mostly Cloudy
8:30 AM 82.4 °F 89.5 °F 75.2 °F 79% 29.86 in 5.0 mi East 6.9 mph - N/A   Mostly Cloudy
9:00 AM 82.4 °F 89.5 °F 75.2 °F 79% 29.86 in 5.0 mi ENE 8.1 mph - N/A   Mostly Cloudy
9:30 AM 84.2 °F 92.3 °F 75.2 °F 74% 29.89 in 5.0 mi ENE 5.8 mph - N/A   Mostly Cloudy
10:00 AM 86.0 °F 96.9 °F 77.0 °F 74% 29.86 in 5.0 mi East 6.9 mph - N/A   Mostly Cloudy
10:30 AM 84.2 °F 90.9 °F 73.4 °F 70% 29.83 in 4.3 mi ENE 13.8 mph - N/A Rain Light Rain
11:00 AM 84.2 °F 90.9 °F 73.4 °F 70% 29.83 in 5.0 mi East 10.4 mph - N/A   Mostly Cloudy
11:30 AM 84.2 °F 90.9 °F 73.4 °F 70% 29.83 in 5.0 mi ENE 9.2 mph - N/A   Mostly Cloudy
12:00 PM 86.0 °F 93.4 °F 73.4 °F 66% 29.80 in 5.0 mi NE 11.5 mph - N/A   Mostly Cloudy
12:30 PM 87.8 °F 95.6 °F 73.4 °F 62% 29.77 in 5.0 mi ENE 11.5 mph - N/A   Mostly Cloudy
1:00 PM 90 °F - 72 °F 47% 29.75 in 6 mi ENE 9.2 mph - -   Partly Cloudy
1:00 PM 87.8 °F 93.8 °F 71.6 °F 58% 29.77 in 5.0 mi ENE 9.2 mph - N/A   Mostly Cloudy
1:30 PM 86.0 °F 91.8 °F 71.6 °F 62% 29.77 in 5.0 mi ENE 9.2 mph - N/A   Mostly Cloudy
2:00 PM 86.0 °F 91.8 °F 71.6 °F 62% 29.74 in 5.0 mi East 11.5 mph - N/A   Mostly Cloudy
2:30 PM 86.0 °F 91.8 °F 71.6 °F 62% 29.74 in 5.0 mi East 5.8 mph - N/A   Mostly Cloudy
3:00 PM 86.0 °F 95.1 °F 75.2 °F 70% 29.74 in 5.0 mi West 8.1 mph - N/A   Mostly Cloudy
3:30 PM 86.0 °F 93.4 °F 73.4 °F 66% 29.74 in 5.0 mi West 10.4 mph - N/A   Mostly Cloudy
4:00 PM 84.2 °F 90.9 °F 73.4 °F 70% 29.74 in 5.0 mi West 9.2 mph - N/A   Mostly Cloudy
4:30 PM 80.6 °F 85.4 °F 73.4 °F 79% 29.74 in 5.0 mi ENE 11.5 mph - N/A   Mostly Cloudy
5:00 PM 77.0 °F - 73.4 °F 89% 29.77 in 1.9 mi ENE 10.4 mph - N/A Rain Rain
5:30 PM 77.0 °F - 71.6 °F 83% 29.80 in 3.1 mi NNE 6.9 mph - N/A Rain Light Rain
6:00 PM 77.0 °F - 73.4 °F 89% 29.80 in 3.1 mi WNW 5.8 mph - N/A Rain Rain
6:30 PM 75.2 °F - 73.4 °F 94% 29.80 in 3.1 mi West 3.5 mph - N/A Rain Light Rain
7:00 PM 75.2 °F - 73.4 °F 94% 29.80 in 3.1 mi Calm Calm - N/A Rain Light Rain
7:30 PM 77.0 °F - 71.6 °F 83% 29.83 in 4.3 mi NNE 3.5 mph - N/A   Mostly Cloudy
8:00 PM 77.0 °F - 73.4 °F 89% 29.83 in 4.3 mi Calm Calm - N/A   Mostly Cloudy
8:30 PM 77.0 °F - 73.4 °F 89% 29.83 in 4.3 mi Variable 2.3 mph - N/A   Mostly Cloudy
9:00 PM 75.2 °F - 73.4 °F 94% 29.83 in 4.3 mi Calm Calm - N/A   Mostly Cloudy
9:30 PM 75.2 °F - 73.4 °F 94% 29.83 in 4.3 mi Calm Calm - N/A   Mostly Cloudy
10:00 PM 75.2 °F - 73.4 °F 94% 29.83 in 4.3 mi Calm Calm - N/A   Mostly Cloudy
10:30 PM 75.2 °F - 73.4 °F 94% 29.83 in 4.3 mi Calm Calm - N/A   Mostly Cloudy
11:00 PM 75.2 °F - 73.4 °F 94% 29.83 in 4.3 mi Calm Calm - N/A   Mostly Cloudy
11:30 PM 75.2 °F - 73.4 °F 94% 29.83 in 4.3 mi Calm Calm - N/A   Mostly Cloudy